This demonstration page uses our WeatherBlox Daily Observations layout. Learn more.

36.19886, -115.1175

Hourly Observations for November 25, 2018

Temp ( °F °C ) Dew Point ( °F °C ) Humidity (%) Winds ( mph kmh ) Pressure ( in mb ) Visibility ( mi km ) Precip ( " mm )
12:53 am 00:53 Clear 49 9.4 29 -1.7 46 46 NNW 5 7 30.09 1019 10 16.09344 0 0
1:53 am 01:53 Clear 48 8.9 28 -2.2 46 46 SSW 5 7 30.12 1020 10 16.09344 0 0
2:53 am 02:53 Clear 47 8.3 27 -2.8 46 46 NNE 3 6 30.12 1020 10 16.09344 0 0
3:53 am 03:53 Clear 44 6.7 27 -2.8 51 51 N 3 6 30.15 1021 10 16.09344 0 0
4:53 am 04:53 Clear 48 8.9 21 -6.1 34 34 N 10 17 30.15 1021 10 16.09344 0 0
5:53 am 05:53 Clear 46 7.8 21 -6.1 37 37 E 3 6 30.18 1022 10 16.09344 0 0
6:53 am 06:53 Sunny 44 6.7 21 -6.1 40 40 NNE 6 9 30.21 1023 10 16.09344 0 0
7:53 am 07:53 Sunny 48 8.9 22 -5.6 36 36 N 6 9 30.24 1024 10 16.09344 0 0
8:53 am 08:53 Sunny 52 11.1 20 -6.7 28 28 N 15 24 30.24 1024 10 16.09344 0 0
9:53 am 09:53 Sunny 54 12.2 19 -7.2 25 25 NNW 7 11 30.24 1024 10 16.09344 0 0
10:53 am 10:53 Sunny 56 13.3 17 -8.3 22 22 N 3 6 30.24 1024 10 16.09344 0 0
11:53 am 11:53 Sunny 57 13.9 16 -8.9 20 20 N 5 7 30.21 1023 10 16.09344 0 0
12:53 pm 12:53 Sunny 59 15 12 -11.1 15 15 E 9 15 30.18 1022 10 16.09344 0 0
1:53 pm 13:53 Sunny 58 14.4 11 -11.7 15 15 E 8 13 30.18 1022 10 16.09344 0 0
2:53 pm 14:53 Sunny 59 15 12 -11.1 15 15 N 5 7 30.18 1022 10 16.09344 0 0
3:53 pm 15:53 Sunny 58 14.4 12 -11.1 16 16 N 6 9 30.18 1022 10 16.09344 0 0
4:53 pm 16:53 Clear 57 13.9 13 -10.6 17 17 WNW 5 7 30.18 1022 10 16.09344 0 0
5:53 pm 17:53 Clear 54 12.2 15 -9.4 21 21 WNW 3 6 30.21 1023 10 16.09344 0 0
6:53 pm 18:53 Clear 50 10 18 -7.8 28 28 NW 7 11 30.24 1024 10 16.09344 0 0
7:53 pm 19:53 Clear 51 10.6 15 -9.4 24 24 N 9 15 30.24 1024 10 16.09344 0 0
8:53 pm 20:53 Clear 51 10.6 13 -10.6 22 22 NNW 12 19 30.24 1024 10 16.09344 0 0
9:53 pm 21:53 Clear 50 10 13 -10.6 22 22 NNW 10 17 30.27 1025 10 16.09344 0 0
10:53 pm 22:53 Clear 50 10 13 -10.6 22 22 N 9 15 30.27 1025 10 16.09344 0 0
11:53 pm 23:53 Clear 50 10 13 -10.6 22 22 N 10 17 30.27 1025 10 16.09344 0 0

Powered by AerisWeather